Time,TemperatureF,DewpointF,PressureIn,WindDirection,WindDirectionDegrees,WindSpeedMPH,WindSpeedGustMPH,Humidity,HourlyPrecipIn,Conditions,Clouds,dailyrainin,SoftwareType,DateUTC
2013-03-10 00:00:00,34.9,34.4,29.79,NW,315,0.0,0.9,98,0.00,,---,0.00,VWS V14.01,2013-03-10 06:00:00,
2013-03-10 00:06:00,34.9,34.4,29.79,NW,315,2.0,2.2,98,0.00,,---,0.00,VWS V14.01,2013-03-10 06:06:00,
2013-03-10 00:11:00,34.9,34.4,29.79,WNW,292,2.2,2.2,98,0.00,,---,0.00,VWS V14.01,2013-03-10 06:11:00,
2013-03-10 00:17:00,34.9,34.4,29.82,North,0,2.9,3.8,98,0.00,,---,0.00,VWS V14.01,2013-03-10 06:17:00,
2013-03-10 00:23:00,34.7,34.2,29.82,North,0,2.9,2.9,98,0.00,,---,0.00,VWS V14.01,2013-03-10 06:23:00,
2013-03-10 00:28:00,34.7,34.2,29.79,WNW,292,2.0,3.6,98,0.04,,---,0.04,VWS V14.01,2013-03-10 06:28:00,
2013-03-10 00:33:00,34.5,34.0,29.79,WNW,292,2.5,2.5,98,0.04,,---,0.04,VWS V14.01,2013-03-10 06:33:00,
2013-03-10 00:39:00,34.5,34.0,29.79,West,270,1.6,2.9,98,0.04,,---,0.04,VWS V14.01,2013-03-10 06:39:00,
2013-03-10 00:44:00,34.5,34.0,29.79,North,0,1.3,1.3,98,0.04,,---,0.04,VWS V14.01,2013-03-10 06:44:00,
2013-03-10 00:50:00,34.3,33.8,29.79,North,0,2.5,2.5,98,0.04,,---,0.04,VWS V14.01,2013-03-10 06:50:00,
2013-03-10 00:55:00,34.3,33.8,29.79,NNE,22,3.4,4.9,98,0.04,,---,0.04,VWS V14.01,2013-03-10 06:55:00,
2013-03-10 01:00:00,34.3,33.8,29.82,NNE,22,2.2,3.8,98,0.04,,---,0.04,VWS V14.01,2013-03-10 07:00:00,
2013-03-10 01:05:00,34.2,33.7,29.82,NNW,338,2.7,3.4,98,0.04,,---,0.04,VWS V14.01,2013-03-10 07:05:00,
2013-03-10 01:10:00,34.2,33.7,29.82,NW,315,3.4,4.9,98,0.04,,---,0.04,VWS V14.01,2013-03-10 07:10:00,
2013-03-10 01:15:00,34.2,33.7,29.82,NNE,22,4.9,4.9,98,0.04,,---,0.04,VWS V14.01,2013-03-10 07:15:00,
2013-03-10 01:21:00,34.0,33.5,29.82,East,90,2.9,2.9,98,0.04,,---,0.04,VWS V14.01,2013-03-10 07:21:00,
2013-03-10 01:26:00,34.0,33.5,29.82,North,0,5.6,5.6,98,0.04,,---,0.04,VWS V14.01,2013-03-10 07:26:00,
2013-03-10 01:31:00,34.0,33.5,29.82,North,0,2.5,5.8,98,0.00,,---,0.04,VWS V14.01,2013-03-10 07:31:00,
2013-03-10 01:36:00,34.0,33.5,29.82,North,0,3.6,3.6,98,0.00,,---,0.04,VWS V14.01,2013-03-10 07:36:00,
2013-03-10 01:42:00,34.0,33.5,29.82,NNE,22,3.8,3.8,98,0.00,,---,0.04,VWS V14.01,2013-03-10 07:42:00,
2013-03-10 01:47:00,33.8,33.3,29.82,NNW,338,5.8,5.8,98,0.00,,---,0.04,VWS V14.01,2013-03-10 07:47:00,
2013-03-10 01:52:00,33.8,33.3,29.82,NW,315,5.8,5.8,98,0.00,,---,0.04,VWS V14.01,2013-03-10 07:52:00,
2013-03-10 01:58:00,33.8,33.3,29.82,NNE,22,4.7,4.7,98,0.00,,---,0.04,VWS V14.01,2013-03-10 07:58:00,
2013-03-10 03:03:00,33.8,33.3,29.82,NW,315,4.7,4.7,98,0.00,,---,0.04,VWS V14.01,2013-03-10 08:03:00,
2013-03-10 03:08:00,33.8,33.3,29.82,North,0,4.0,4.9,98,0.00,,---,0.04,VWS V14.01,2013-03-10 08:08:00,
2013-03-10 03:13:00,33.8,33.3,29.82,NW,315,2.7,5.6,98,0.00,,---,0.04,VWS V14.01,2013-03-10 08:13:00,
2013-03-10 03:18:00,33.8,33.3,29.82,NE,45,4.9,4.9,98,0.00,,---,0.04,VWS V14.01,2013-03-10 08:18:00,
2013-03-10 03:23:00,33.8,33.3,29.82,NW,315,2.9,6.3,98,0.00,,---,0.04,VWS V14.01,2013-03-10 08:23:00,
2013-03-10 03:28:00,33.8,33.3,29.82,NNE,22,2.5,3.6,98,0.00,,---,0.04,VWS V14.01,2013-03-10 08:28:00,
2013-03-10 03:34:00,33.8,33.3,29.82,North,0,2.0,2.5,98,0.00,,---,0.04,VWS V14.01,2013-03-10 08:34:00,
2013-03-10 03:39:00,33.8,33.3,29.82,NNE,22,2.7,3.8,98,0.00,,---,0.04,VWS V14.01,2013-03-10 08:39:00,
2013-03-10 03:45:00,33.8,33.3,29.82,North,0,1.6,5.4,98,0.00,,---,0.04,VWS V14.01,2013-03-10 08:45:00,
2013-03-10 03:51:00,33.8,33.3,29.82,North,0,3.8,4.3,98,0.00,,---,0.04,VWS V14.01,2013-03-10 08:51:00,
2013-03-10 03:57:00,33.8,33.3,29.82,North,0,2.0,6.0,98,0.00,,---,0.04,VWS V14.01,2013-03-10 08:57:00,
2013-03-10 04:02:00,33.8,33.3,29.82,North,0,3.1,3.4,98,0.00,,---,0.04,VWS V14.01,2013-03-10 09:02:00,
2013-03-10 04:07:00,33.8,33.3,29.82,ENE,68,3.6,6.0,98,0.00,,---,0.04,VWS V14.01,2013-03-10 09:07:00,
2013-03-10 04:13:00,33.8,33.3,29.85,North,0,4.3,5.8,98,0.00,,---,0.04,VWS V14.01,2013-03-10 09:13:00,
2013-03-10 04:18:00,33.8,33.3,29.85,NNE,22,2.9,4.9,98,0.00,,---,0.04,VWS V14.01,2013-03-10 09:18:00,
2013-03-10 04:23:00,33.8,33.3,29.85,WNW,292,6.3,6.3,98,0.00,,---,0.04,VWS V14.01,2013-03-10 09:23:00,
2013-03-10 04:28:00,33.8,33.3,29.85,ENE,68,2.2,5.4,98,0.00,,---,0.04,VWS V14.01,2013-03-10 09:28:00,
2013-03-10 04:34:00,33.8,33.3,29.85,NNE,22,4.3,4.3,98,0.00,,---,0.04,VWS V14.01,2013-03-10 09:34:00,
2013-03-10 04:40:00,33.8,33.3,29.85,NNE,22,3.6,7.4,98,0.00,,---,0.04,VWS V14.01,2013-03-10 09:40:00,
2013-03-10 04:45:00,33.8,33.3,29.82,NNE,22,2.5,3.6,98,0.00,,---,0.04,VWS V14.01,2013-03-10 09:45:00,
2013-03-10 04:50:00,33.8,33.3,29.82,NE,45,2.9,4.9,98,0.00,,---,0.04,VWS V14.01,2013-03-10 09:50:00,
2013-03-10 04:55:00,33.8,33.3,29.82,North,0,1.3,4.3,98,0.00,,---,0.04,VWS V14.01,2013-03-10 09:55:00,
2013-03-10 05:00:00,33.8,33.3,29.82,NNW,338,2.9,5.4,98,0.00,,---,0.04,VWS V14.01,2013-03-10 10:00:00,
2013-03-10 05:05:00,33.8,33.3,29.82,NNW,338,6.3,6.3,98,0.00,,---,0.04,VWS V14.01,2013-03-10 10:05:00,
2013-03-10 05:10:00,33.8,33.3,29.82,North,0,5.8,5.8,98,0.00,,---,0.04,VWS V14.01,2013-03-10 10:10:00,
2013-03-10 05:16:00,33.8,33.3,29.82,ENE,68,2.9,4.3,98,0.00,,---,0.04,VWS V14.01,2013-03-10 10:16:00,
2013-03-10 05:21:00,33.8,33.3,29.82,NNW,338,4.9,5.8,98,0.00,,---,0.04,VWS V14.01,2013-03-10 10:21:00,
2013-03-10 05:26:00,33.8,33.3,29.82,North,0,2.5,5.4,98,0.00,,---,0.04,VWS V14.01,2013-03-10 10:26:00,
2013-03-10 05:31:00,33.8,33.3,29.82,NNW,338,2.7,5.6,98,0.00,,---,0.04,VWS V14.01,2013-03-10 10:31:00,
2013-03-10 05:37:00,33.8,33.3,29.82,NW,315,3.6,5.8,98,0.00,,---,0.04,VWS V14.01,2013-03-10 10:37:00,
2013-03-10 05:42:00,33.8,33.3,29.85,North,0,4.9,6.3,98,0.00,,---,0.04,VWS V14.01,2013-03-10 10:42:00,
2013-03-10 05:47:00,33.8,33.3,29.85,North,0,3.8,4.9,98,0.00,,---,0.04,VWS V14.01,2013-03-10 10:47:00,
2013-03-10 05:52:00,33.8,33.3,29.85,NNW,338,2.7,6.0,98,0.00,,---,0.04,VWS V14.01,2013-03-10 10:52:00,
2013-03-10 05:58:00,33.8,33.3,29.85,NE,45,3.6,4.0,98,0.00,,---,0.04,VWS V14.01,2013-03-10 10:58:00,
2013-03-10 06:03:00,33.8,33.3,29.85,SSE,158,3.1,4.0,98,0.00,,---,0.04,VWS V14.01,2013-03-10 11:03:00,
2013-03-10 06:08:00,33.8,33.3,29.85,NNW,338,1.6,4.3,98,0.00,,---,0.04,VWS V14.01,2013-03-10 11:08:00,
2013-03-10 06:13:00,33.8,33.3,29.85,North,0,3.6,6.0,98,0.00,,---,0.04,VWS V14.01,2013-03-10 11:13:00,
2013-03-10 06:19:00,33.8,33.3,29.85,NNW,338,5.8,5.8,98,0.00,,---,0.04,VWS V14.01,2013-03-10 11:19:00,
2013-03-10 06:24:00,33.8,33.3,29.85,North,0,3.1,5.6,98,0.00,,---,0.04,VWS V14.01,2013-03-10 11:24:00,
2013-03-10 06:29:00,33.6,33.1,29.85,NNE,22,3.8,7.4,98,0.00,,---,0.04,VWS V14.01,2013-03-10 11:29:00,
2013-03-10 06:34:00,33.6,33.1,29.85,NNW,338,3.8,4.9,98,0.00,,---,0.04,VWS V14.01,2013-03-10 11:34:00,
2013-03-10 06:40:00,33.6,33.1,29.85,NNW,338,6.0,6.0,98,0.00,,---,0.04,VWS V14.01,2013-03-10 11:40:00,
2013-03-10 06:45:00,33.6,33.1,29.85,West,270,1.6,8.1,98,0.00,,---,0.04,VWS V14.01,2013-03-10 11:45:00,
2013-03-10 06:50:00,33.6,33.1,29.85,NNW,338,2.2,4.7,98,0.00,,---,0.04,VWS V14.01,2013-03-10 11:50:00,
2013-03-10 06:55:00,33.6,32.9,29.85,NNE,22,8.7,8.7,97,0.00,,---,0.04,VWS V14.01,2013-03-10 11:55:00,
2013-03-10 07:00:00,33.6,32.9,29.88,NNE,22,3.1,8.1,97,0.00,,---,0.04,VWS V14.01,2013-03-10 12:00:00,
2013-03-10 07:05:00,33.6,32.6,29.88,NNW,338,2.7,5.6,96,0.00,,---,0.04,VWS V14.01,2013-03-10 12:05:00,
2013-03-10 07:10:00,33.6,32.6,29.88,North,0,3.1,6.0,96,0.00,,---,0.04,VWS V14.01,2013-03-10 12:10:00,
2013-03-10 07:15:00,33.6,32.6,29.88,ENE,68,5.4,5.4,96,0.00,,---,0.04,VWS V14.01,2013-03-10 12:15:00,
2013-03-10 07:21:00,33.6,32.3,29.88,NNE,22,4.0,7.8,95,0.00,,---,0.04,VWS V14.01,2013-03-10 12:21:00,
2013-03-10 07:26:00,33.6,32.1,29.85,North,0,3.4,5.8,94,0.00,,---,0.04,VWS V14.01,2013-03-10 12:26:00,
2013-03-10 07:31:00,33.6,32.1,29.85,ENE,68,3.6,5.8,94,0.00,,---,0.04,VWS V14.01,2013-03-10 12:31:00,
2013-03-10 07:36:00,33.6,32.1,29.85,WNW,292,4.0,7.4,94,0.00,,---,0.04,VWS V14.01,2013-03-10 12:36:00,
2013-03-10 07:41:00,33.6,32.1,29.88,NNW,338,2.5,3.4,94,0.00,,---,0.04,VWS V14.01,2013-03-10 12:41:00,
2013-03-10 07:46:00,33.6,31.8,29.88,NW,315,3.1,4.5,93,0.00,,---,0.04,VWS V14.01,2013-03-10 12:46:00,
2013-03-10 07:51:00,33.6,31.8,29.88,NNW,338,3.4,4.3,93,0.00,,---,0.04,VWS V14.01,2013-03-10 12:51:00,
2013-03-10 07:57:00,33.6,31.5,29.88,NNW,338,2.9,6.3,92,0.00,,---,0.04,VWS V14.01,2013-03-10 12:57:00,
2013-03-10 08:02:00,33.6,31.5,29.88,NW,315,3.8,3.8,92,0.00,,---,0.04,VWS V14.01,2013-03-10 13:02:00,
2013-03-10 08:07:00,33.6,31.3,29.88,NNE,22,2.9,3.4,91,0.00,,---,0.04,VWS V14.01,2013-03-10 13:07:00,
2013-03-10 08:13:00,33.6,31.0,29.88,North,0,4.0,4.0,90,0.00,,---,0.04,VWS V14.01,2013-03-10 13:13:00,
2013-03-10 08:18:00,33.8,30.9,29.88,NW,315,3.1,3.6,89,0.00,,---,0.04,VWS V14.01,2013-03-10 13:18:00,
2013-03-10 08:23:00,33.8,30.9,29.88,NNE,22,1.1,2.7,89,0.00,,---,0.04,VWS V14.01,2013-03-10 13:23:00,
2013-03-10 08:29:00,33.8,30.9,29.91,NNE,22,3.8,6.5,89,0.00,,---,0.04,VWS V14.01,2013-03-10 13:29:00,
2013-03-10 08:34:00,33.8,30.9,29.91,NNE,22,4.3,4.3,89,0.00,,---,0.04,VWS V14.01,2013-03-10 13:34:00,
2013-03-10 08:39:00,33.8,30.9,29.91,North,0,2.0,2.9,89,0.00,,---,0.04,VWS V14.01,2013-03-10 13:39:00,
2013-03-10 08:44:00,34.0,30.8,29.94,NW,315,2.2,4.9,88,0.00,,---,0.04,VWS V14.01,2013-03-10 13:44:00,
2013-03-10 08:49:00,34.0,30.8,29.94,NW,315,2.7,6.5,88,0.00,,---,0.04,VWS V14.01,2013-03-10 13:49:00,
2013-03-10 08:54:00,34.0,30.5,29.94,North,0,4.3,6.7,87,0.00,,---,0.04,VWS V14.01,2013-03-10 13:54:00,
2013-03-10 09:00:00,34.0,30.5,29.94,NNW,338,2.5,4.9,87,0.00,,---,0.04,VWS V14.01,2013-03-10 14:00:00,
2013-03-10 09:05:00,34.0,30.5,29.94,WNW,292,3.8,4.9,87,0.00,,---,0.04,VWS V14.01,2013-03-10 14:05:00,
2013-03-10 09:10:00,34.0,30.5,29.94,NW,315,3.1,5.6,87,0.00,,---,0.04,VWS V14.01,2013-03-10 14:10:00,
2013-03-10 09:15:00,34.0,30.5,29.94,NNE,22,6.5,6.7,87,0.00,,---,0.04,VWS V14.01,2013-03-10 14:15:00,
2013-03-10 09:21:00,34.0,30.5,29.94,NNW,338,2.0,2.0,87,0.00,,---,0.04,VWS V14.01,2013-03-10 14:21:00,
2013-03-10 09:26:00,34.0,30.2,29.97,ENE,68,3.8,7.6,86,0.00,,---,0.04,VWS V14.01,2013-03-10 14:26:00,
2013-03-10 09:31:00,34.0,30.2,29.97,NNE,22,1.3,2.5,86,0.00,,---,0.04,VWS V14.01,2013-03-10 14:31:00,
2013-03-10 09:36:00,34.0,30.2,29.97,North,0,3.4,4.3,86,0.00,,---,0.04,VWS V14.01,2013-03-10 14:36:00,
2013-03-10 09:42:00,34.2,30.4,29.94,North,0,3.4,5.6,86,0.00,,---,0.04,VWS V14.01,2013-03-10 14:42:00,
2013-03-10 09:47:00,34.2,30.4,29.94,NNW,338,3.6,7.2,86,0.00,,---,0.04,VWS V14.01,2013-03-10 14:47:00,
2013-03-10 09:52:00,34.2,30.4,29.94,East,90,3.6,5.6,86,0.00,,---,0.04,VWS V14.01,2013-03-10 14:52:00,
2013-03-10 09:57:00,34.2,30.1,29.91,SSW,202,4.9,5.4,85,0.00,,---,0.04,VWS V14.01,2013-03-10 14:57:00,
2013-03-10 10:02:00,34.2,30.1,29.91,ENE,68,6.3,6.3,85,0.00,,---,0.04,VWS V14.01,2013-03-10 15:02:00,
2013-03-10 10:08:00,34.3,30.6,29.91,NE,45,1.3,3.6,86,0.00,,---,0.04,VWS V14.01,2013-03-10 15:08:00,
2013-03-10 10:13:00,34.3,30.3,29.97,East,90,2.9,5.6,85,0.00,,---,0.04,VWS V14.01,2013-03-10 15:13:00,
2013-03-10 10:18:00,34.3,30.3,29.97,NW,315,3.4,10.3,85,0.00,,---,0.04,VWS V14.01,2013-03-10 15:18:00,
2013-03-10 10:23:00,34.3,30.3,29.97,NNE,22,2.9,6.3,85,0.00,,---,0.04,VWS V14.01,2013-03-10 15:23:00,
2013-03-10 10:28:00,34.3,30.3,29.97,NNW,338,2.5,3.6,85,0.00,,---,0.04,VWS V14.01,2013-03-10 15:28:00,
2013-03-10 10:33:00,34.5,30.5,29.97,NNE,22,3.6,4.3,85,0.00,,---,0.04,VWS V14.01,2013-03-10 15:33:00,
2013-03-10 10:38:00,34.5,30.2,29.97,NE,45,2.9,3.6,84,0.00,,---,0.04,VWS V14.01,2013-03-10 15:38:00,
2013-03-10 10:43:00,34.5,30.2,29.94,East,90,7.4,7.4,84,0.00,,---,0.04,VWS V14.01,2013-03-10 15:43:00,
2013-03-10 10:48:00,34.7,30.4,29.94,NNE,22,3.6,7.4,84,0.00,,---,0.04,VWS V14.01,2013-03-10 15:48:00,
2013-03-10 10:53:00,34.7,30.1,29.94,NNE,22,2.0,4.9,83,0.00,,---,0.04,VWS V14.01,2013-03-10 15:53:00,
2013-03-10 10:58:00,34.7,30.1,29.94,NNW,338,4.3,4.3,83,0.00,,---,0.04,VWS V14.01,2013-03-10 15:58:00,
2013-03-10 11:04:00,34.9,30.2,29.94,NNE,22,6.0,6.0,83,0.00,,---,0.04,VWS V14.01,2013-03-10 16:04:00,
2013-03-10 11:09:00,34.9,30.2,29.94,East,90,3.6,3.8,83,0.00,,---,0.04,VWS V14.01,2013-03-10 16:09:00,
2013-03-10 11:14:00,34.9,30.0,29.97,NNE,22,5.6,5.6,82,0.00,,---,0.04,VWS V14.01,2013-03-10 16:14:00,
2013-03-10 11:20:00,34.9,30.0,29.97,ENE,68,4.3,5.6,82,0.00,,---,0.04,VWS V14.01,2013-03-10 16:20:00,
2013-03-10 11:25:00,34.9,30.0,29.97,NE,45,2.0,6.0,82,0.00,,---,0.04,VWS V14.01,2013-03-10 16:25:00,
2013-03-10 11:30:00,34.9,30.2,29.97,NNW,338,2.0,3.1,83,0.00,,---,0.04,VWS V14.01,2013-03-10 16:30:00,
2013-03-10 11:35:00,34.9,29.6,29.97,NNE,22,3.6,7.2,81,0.00,,---,0.04,VWS V14.01,2013-03-10 16:35:00,
2013-03-10 11:41:00,34.9,29.6,29.97,NNW,338,4.3,7.4,81,0.00,,---,0.04,VWS V14.01,2013-03-10 16:41:00,
2013-03-10 11:46:00,35.1,29.8,29.97,WSW,248,4.0,5.6,81,0.00,,---,0.04,VWS V14.01,2013-03-10 16:46:00,
2013-03-10 11:51:00,35.1,29.8,29.97,NNE,22,2.7,4.7,81,0.00,,---,0.04,VWS V14.01,2013-03-10 16:51:00,
2013-03-10 11:56:00,35.1,29.8,29.94,NE,45,5.6,6.3,81,0.00,,---,0.04,VWS V14.01,2013-03-10 16:56:00,
2013-03-10 12:02:00,34.9,30.0,29.94,NNE,22,3.8,5.8,82,0.00,,---,0.04,VWS V14.01,2013-03-10 17:02:00,
2013-03-10 12:07:00,34.9,30.0,29.94,ENE,68,3.1,7.4,82,0.00,,---,0.04,VWS V14.01,2013-03-10 17:07:00,
2013-03-10 12:12:00,34.9,30.0,29.94,North,0,6.3,6.3,82,0.00,,---,0.04,VWS V14.01,2013-03-10 17:12:00,
2013-03-10 12:17:00,34.9,30.0,29.94,ENE,68,2.9,6.5,82,0.00,,---,0.04,VWS V14.01,2013-03-10 17:17:00,
2013-03-10 12:23:00,34.9,30.0,29.94,NNE,22,4.9,5.6,82,0.00,,---,0.04,VWS V14.01,2013-03-10 17:23:00,
2013-03-10 12:28:00,34.9,30.0,29.97,NNE,22,4.7,6.5,82,0.00,,---,0.04,VWS V14.01,2013-03-10 17:28:00,
2013-03-10 12:33:00,34.9,30.0,29.97,North,0,2.0,3.8,82,0.00,,---,0.04,VWS V14.01,2013-03-10 17:33:00,
2013-03-10 12:39:00,34.9,30.0,29.97,NNW,338,3.6,5.8,82,0.00,,---,0.04,VWS V14.01,2013-03-10 17:39:00,
2013-03-10 12:44:00,34.9,30.0,29.94,North,0,2.7,3.8,82,0.00,,---,0.04,VWS V14.01,2013-03-10 17:44:00,
2013-03-10 12:49:00,34.7,29.8,29.94,North,0,2.5,3.6,82,0.00,,---,0.04,VWS V14.01,2013-03-10 17:49:00,
2013-03-10 12:54:00,34.5,29.6,29.94,WNW,292,5.4,5.4,82,0.00,,---,0.04,VWS V14.01,2013-03-10 17:54:00,
2013-03-10 12:59:00,34.3,29.4,29.94,North,0,6.0,7.8,82,0.00,,---,0.04,VWS V14.01,2013-03-10 17:59:00,
2013-03-10 13:05:00,34.2,29.2,29.94,NW,315,4.0,8.7,82,0.00,,---,0.04,VWS V14.01,2013-03-10 18:05:00,
2013-03-10 13:10:00,34.2,29.5,29.94,North,0,5.4,8.1,83,0.00,,---,0.04,VWS V14.01,2013-03-10 18:10:00,
2013-03-10 13:15:00,34.2,29.5,29.94,NNE,22,2.5,6.3,83,0.00,,---,0.04,VWS V14.01,2013-03-10 18:15:00,
2013-03-10 13:20:00,34.3,30.0,29.94,ENE,68,9.6,9.6,84,0.00,,---,0.04,VWS V14.01,2013-03-10 18:20:00,
2013-03-10 13:26:00,34.5,30.2,29.94,North,0,4.9,5.8,84,0.00,,---,0.04,VWS V14.01,2013-03-10 18:26:00,
2013-03-10 13:31:00,34.3,29.7,29.94,South,180,3.8,8.5,83,0.00,,---,0.04,VWS V14.01,2013-03-10 18:31:00,
2013-03-10 13:36:00,34.3,29.7,29.94,NE,45,4.9,4.9,83,0.00,,---,0.04,VWS V14.01,2013-03-10 18:36:00,
2013-03-10 13:41:00,34.0,29.4,29.94,NNE,22,9.4,9.4,83,0.00,,---,0.04,VWS V14.01,2013-03-10 18:41:00,
2013-03-10 13:46:00,34.0,29.4,29.94,NNW,338,4.3,5.4,83,0.00,,---,0.04,VWS V14.01,2013-03-10 18:46:00,
2013-03-10 13:51:00,33.8,29.2,29.94,WNW,292,5.6,6.0,83,0.00,,---,0.04,VWS V14.01,2013-03-10 18:51:00,
2013-03-10 13:56:00,33.8,29.2,29.94,NW,315,6.5,6.5,83,0.00,,---,0.04,VWS V14.01,2013-03-10 18:56:00,
2013-03-10 14:01:00,33.8,29.2,29.94,NW,315,3.4,6.3,83,0.00,,---,0.04,VWS V14.01,2013-03-10 19:01:00,
2013-03-10 14:06:00,33.6,29.3,29.94,NE,45,5.4,10.7,84,0.00,,---,0.04,VWS V14.01,2013-03-10 19:06:00,
2013-03-10 14:11:00,33.6,29.3,29.94,NE,45,3.8,4.3,84,0.00,,---,0.04,VWS V14.01,2013-03-10 19:11:00,
2013-03-10 14:16:00,33.8,29.2,29.94,NNE,22,4.0,4.0,83,0.00,,---,0.04,VWS V14.01,2013-03-10 19:16:00,
2013-03-10 14:21:00,33.8,29.2,29.94,NE,45,2.7,3.4,83,0.00,,---,0.04,VWS V14.01,2013-03-10 19:21:00,
2013-03-10 14:26:00,33.8,29.2,29.91,NNE,22,3.4,4.3,83,0.00,,---,0.04,VWS V14.01,2013-03-10 19:26:00,
2013-03-10 14:32:00,33.8,29.2,29.91,NNE,22,3.6,3.6,83,0.00,,---,0.04,VWS V14.01,2013-03-10 19:32:00,
2013-03-10 14:38:00,33.8,28.9,29.91,North,0,2.0,5.8,82,0.00,,---,0.04,VWS V14.01,2013-03-10 19:38:00,
2013-03-10 14:43:00,34.0,29.1,29.94,NNW,338,3.1,4.0,82,0.00,,---,0.04,VWS V14.01,2013-03-10 19:43:00,
2013-03-10 14:48:00,34.0,28.8,29.94,NNE,22,4.0,6.3,81,0.00,,---,0.04,VWS V14.01,2013-03-10 19:48:00,
2013-03-10 14:54:00,33.8,28.3,29.94,NNE,22,3.6,6.3,80,0.00,,---,0.04,VWS V14.01,2013-03-10 19:54:00,
2013-03-10 15:00:00,34.0,28.5,29.94,ENE,68,1.1,3.1,80,0.00,,---,0.04,VWS V14.01,2013-03-10 20:00:00,
2013-03-10 15:05:00,34.2,29.0,29.94,WNW,292,4.0,4.0,81,0.00,,---,0.04,VWS V14.01,2013-03-10 20:05:00,
2013-03-10 15:11:00,34.0,28.5,29.94,NE,45,5.4,5.4,80,0.00,,---,0.04,VWS V14.01,2013-03-10 20:11:00,
2013-03-10 15:16:00,33.8,28.0,29.94,NNE,22,5.6,5.6,79,0.00,,---,0.04,VWS V14.01,2013-03-10 20:16:00,
2013-03-10 15:22:00,33.8,28.0,29.94,NNW,338,5.8,5.8,79,0.00,,---,0.04,VWS V14.01,2013-03-10 20:22:00,
2013-03-10 15:28:00,33.8,28.0,29.94,NE,45,3.8,6.3,79,0.00,,---,0.04,VWS V14.01,2013-03-10 20:28:00,
2013-03-10 15:33:00,33.8,28.0,29.94,North,0,3.6,3.8,79,0.00,,---,0.04,VWS V14.01,2013-03-10 20:33:00,
2013-03-10 15:39:00,33.8,27.7,29.94,NNE,22,3.4,3.6,78,0.00,,---,0.04,VWS V14.01,2013-03-10 20:39:00,
2013-03-10 15:44:00,33.8,28.0,29.94,NNE,22,2.5,2.5,79,0.00,,---,0.04,VWS V14.01,2013-03-10 20:44:00,
2013-03-10 15:49:00,33.8,27.7,29.94,East,90,2.5,5.6,78,0.00,,---,0.04,VWS V14.01,2013-03-10 20:49:00,
2013-03-10 15:55:00,33.8,27.7,29.94,ESE,112,2.7,2.7,78,0.00,,---,0.04,VWS V14.01,2013-03-10 20:55:00,
2013-03-10 16:00:00,33.8,27.7,29.91,North,0,6.0,8.1,78,0.00,,---,0.04,VWS V14.01,2013-03-10 21:00:00,
2013-03-10 16:06:00,33.6,27.5,29.91,NNE,22,1.3,3.8,78,0.00,,---,0.04,VWS V14.01,2013-03-10 21:06:00,
2013-03-10 16:11:00,33.6,27.5,29.91,NW,315,5.4,5.4,78,0.00,,---,0.04,VWS V14.01,2013-03-10 21:11:00,
2013-03-10 16:17:00,33.6,27.5,29.91,North,0,3.8,3.8,78,0.00,,---,0.04,VWS V14.01,2013-03-10 21:17:00,
2013-03-10 16:23:00,33.4,27.3,29.91,ENE,68,7.8,8.7,78,0.00,,---,0.04,VWS V14.01,2013-03-10 21:23:00,
2013-03-10 16:28:00,33.4,27.3,29.91,ENE,68,6.5,6.5,78,0.00,,---,0.04,VWS V14.01,2013-03-10 21:28:00,
2013-03-10 16:33:00,33.3,27.1,29.91,NNE,22,6.5,6.5,78,0.00,,---,0.04,VWS V14.01,2013-03-10 21:33:00,
2013-03-10 16:39:00,33.3,27.1,29.91,ENE,68,3.4,7.2,78,0.00,,---,0.04,VWS V14.01,2013-03-10 21:39:00,
2013-03-10 16:45:00,33.1,27.0,29.91,NNE,22,4.0,7.6,78,0.00,,---,0.04,VWS V14.01,2013-03-10 21:45:00,
2013-03-10 16:50:00,33.1,27.0,29.91,NNE,22,4.7,9.8,78,0.00,,---,0.04,VWS V14.01,2013-03-10 21:50:00,
2013-03-10 16:56:00,33.1,27.0,29.91,East,90,4.3,6.5,78,0.00,,---,0.04,VWS V14.01,2013-03-10 21:56:00,
2013-03-10 17:02:00,33.1,27.0,29.91,ENE,68,4.0,5.4,78,0.00,,---,0.04,VWS V14.01,2013-03-10 22:02:00,
2013-03-10 17:07:00,32.9,26.8,29.91,North,0,4.3,4.3,78,0.00,,---,0.04,VWS V14.01,2013-03-10 22:07:00,
2013-03-10 17:13:00,32.9,26.8,29.91,North,0,1.3,2.5,78,0.00,,---,0.04,VWS V14.01,2013-03-10 22:13:00,
2013-03-10 17:19:00,32.7,26.6,29.91,East,90,6.0,12.1,78,0.00,,---,0.04,VWS V14.01,2013-03-10 22:19:00,
2013-03-10 17:24:00,32.7,26.6,29.91,North,0,3.4,10.5,78,0.00,,---,0.04,VWS V14.01,2013-03-10 22:24:00,
2013-03-10 17:29:00,32.7,26.6,29.91,NNE,22,3.1,6.5,78,0.00,,---,0.04,VWS V14.01,2013-03-10 22:29:00,
2013-03-10 17:34:00,32.7,26.6,29.91,NE,45,2.7,7.4,78,0.00,,---,0.04,VWS V14.01,2013-03-10 22:34:00,
2013-03-10 17:40:00,32.7,26.6,29.91,NNW,338,4.3,4.3,78,0.00,,---,0.04,VWS V14.01,2013-03-10 22:40:00,
2013-03-10 17:45:00,32.7,26.6,29.91,NNW,338,5.6,5.8,78,0.00,,---,0.04,VWS V14.01,2013-03-10 22:45:00,
2013-03-10 17:50:00,32.7,26.6,29.91,ENE,68,3.4,3.6,78,0.00,,---,0.04,VWS V14.01,2013-03-10 22:50:00,
2013-03-10 17:55:00,32.7,26.6,29.91,NNE,22,4.3,5.4,78,0.00,,---,0.04,VWS V14.01,2013-03-10 22:55:00,
2013-03-10 18:00:00,32.7,26.6,29.91,NE,45,2.5,7.4,78,0.00,,---,0.04,VWS V14.01,2013-03-10 23:00:00,
2013-03-10 18:07:00,32.7,26.6,29.91,NW,315,3.4,7.2,78,0.00,,---,0.04,VWS V14.01,2013-03-10 23:07:00,
2013-03-10 18:13:00,32.7,26.6,29.91,NNW,338,4.3,6.0,78,0.00,,---,0.04,VWS V14.01,2013-03-10 23:13:00,
2013-03-10 18:18:00,32.5,26.5,29.91,SE,135,3.6,6.0,78,0.00,,---,0.04,VWS V14.01,2013-03-10 23:18:00,
2013-03-10 18:23:00,32.5,26.5,29.91,WSW,248,4.7,4.7,78,0.00,,---,0.04,VWS V14.01,2013-03-10 23:23:00,
2013-03-10 18:28:00,32.5,26.5,29.91,ENE,68,3.6,5.6,78,0.00,,---,0.04,VWS V14.01,2013-03-10 23:28:00,
2013-03-10 18:34:00,32.5,26.5,29.91,NNW,338,3.6,4.9,78,0.00,,---,0.04,VWS V14.01,2013-03-10 23:34:00,
2013-03-10 18:39:00,32.5,26.5,29.91,North,0,4.0,4.0,78,0.00,,---,0.04,VWS V14.01,2013-03-10 23:39:00,
2013-03-10 18:45:00,32.4,26.3,29.91,NNW,338,3.4,3.6,78,0.00,,---,0.04,VWS V14.01,2013-03-10 23:45:00,
2013-03-10 18:50:00,32.4,26.6,29.91,North,0,5.4,6.0,79,0.00,,---,0.04,VWS V14.01,2013-03-10 23:50:00,
2013-03-10 18:55:00,32.4,26.6,29.91,ENE,68,1.6,4.9,79,0.00,,---,0.04,VWS V14.01,2013-03-10 23:55:00,
2013-03-10 19:00:00,32.4,26.6,29.91,NNW,338,9.8,9.8,79,0.00,,---,0.04,VWS V14.01,2013-03-11 00:00:00,
2013-03-10 19:05:00,32.2,26.4,29.91,ENE,68,3.4,4.0,79,0.00,,---,0.04,VWS V14.01,2013-03-11 00:05:00,
2013-03-10 19:11:00,32.2,26.4,29.91,North,0,2.9,3.8,79,0.00,,---,0.04,VWS V14.01,2013-03-11 00:11:00,
2013-03-10 19:16:00,32.2,26.4,29.91,NNE,22,6.0,6.0,79,0.00,,---,0.04,VWS V14.01,2013-03-11 00:16:00,
2013-03-10 19:22:00,32.2,26.4,29.91,NW,315,0.9,3.6,79,0.00,,---,0.04,VWS V14.01,2013-03-11 00:22:00,
2013-03-10 19:27:00,32.2,26.4,29.91,ENE,68,2.7,3.6,79,0.00,,---,0.04,VWS V14.01,2013-03-11 00:27:00,
2013-03-10 19:33:00,32.2,26.4,29.91,WNW,292,2.2,5.6,79,0.00,,---,0.04,VWS V14.01,2013-03-11 00:33:00,
2013-03-10 19:38:00,32.2,26.4,29.91,NNE,22,3.8,6.0,79,0.00,,---,0.04,VWS V14.01,2013-03-11 00:38:00,
2013-03-10 19:44:00,32.0,25.9,29.91,NNE,22,6.3,6.3,78,0.00,,---,0.04,VWS V14.01,2013-03-11 00:44:00,
2013-03-10 19:49:00,32.0,25.9,29.91,NNE,22,2.9,4.5,78,0.00,,---,0.04,VWS V14.01,2013-03-11 00:49:00,
2013-03-10 19:54:00,31.8,25.8,29.91,ENE,68,3.8,4.9,78,0.00,,---,0.04,VWS V14.01,2013-03-11 00:54:00,
2013-03-10 19:59:00,31.8,25.8,29.91,NNE,22,4.0,4.0,78,0.00,,---,0.04,VWS V14.01,2013-03-11 00:59:00,
2013-03-10 20:05:00,31.8,25.8,29.91,North,0,7.4,7.4,78,0.00,,---,0.04,VWS V14.01,2013-03-11 01:05:00,
2013-03-10 20:10:00,31.6,25.6,29.91,NE,45,3.1,4.3,78,0.00,,---,0.04,VWS V14.01,2013-03-11 01:10:00,
2013-03-10 20:15:00,31.6,25.6,29.91,North,0,2.9,2.9,78,0.00,,---,0.04,VWS V14.01,2013-03-11 01:15:00,
2013-03-10 20:20:00,31.5,25.4,29.91,North,0,6.5,10.5,78,0.00,,---,0.04,VWS V14.01,2013-03-11 01:20:00,
2013-03-10 20:27:00,31.5,25.4,29.91,NW,315,3.6,3.8,78,0.00,,---,0.04,VWS V14.01,2013-03-11 01:27:00,
2013-03-10 20:33:00,31.3,24.9,29.91,NE,45,2.9,4.9,77,0.00,,---,0.04,VWS V14.01,2013-03-11 01:33:00,
2013-03-10 20:38:00,31.3,25.2,29.91,North,0,8.5,8.5,78,0.00,,---,0.04,VWS V14.01,2013-03-11 01:38:00,
2013-03-10 20:43:00,31.1,25.0,29.94,NE,45,3.6,3.6,78,0.00,,---,0.04,VWS V14.01,2013-03-11 01:43:00,
2013-03-10 20:49:00,31.1,25.0,29.94,North,0,2.7,6.0,78,0.00,,---,0.04,VWS V14.01,2013-03-11 01:49:00,
2013-03-10 20:54:00,31.1,25.0,29.94,NNE,22,0.9,1.3,78,0.00,,---,0.04,VWS V14.01,2013-03-11 01:54:00,
2013-03-10 20:59:00,31.1,25.0,29.94,WNW,292,0.9,7.2,78,0.00,,---,0.04,VWS V14.01,2013-03-11 01:59:00,
2013-03-10 21:05:00,31.1,25.0,29.94,NNW,338,2.5,3.4,78,0.00,,---,0.04,VWS V14.01,2013-03-11 02:05:00,
2013-03-10 21:10:00,31.1,25.0,29.94,NNW,338,3.1,3.1,78,0.00,,---,0.04,VWS V14.01,2013-03-11 02:10:00,
2013-03-10 21:15:00,31.1,25.0,29.94,ESE,112,2.7,2.7,78,0.00,,---,0.04,VWS V14.01,2013-03-11 02:15:00,
2013-03-10 21:20:00,31.1,25.0,29.94,NNE,22,4.9,4.9,78,0.00,,---,0.04,VWS V14.01,2013-03-11 02:20:00,
2013-03-10 21:25:00,31.1,25.0,29.94,North,0,2.7,2.9,78,0.00,,---,0.04,VWS V14.01,2013-03-11 02:25:00,
2013-03-10 21:30:00,31.1,25.0,29.94,NNE,22,2.7,4.3,78,0.00,,---,0.04,VWS V14.01,2013-03-11 02:30:00,
2013-03-10 21:36:00,31.1,25.0,29.94,North,0,3.4,5.4,78,0.00,,---,0.04,VWS V14.01,2013-03-11 02:36:00,
2013-03-10 21:42:00,31.1,25.0,29.91,East,90,5.8,5.8,78,0.00,,---,0.04,VWS V14.01,2013-03-11 02:42:00,
2013-03-10 21:47:00,31.1,25.0,29.91,ENE,68,4.0,4.9,78,0.00,,---,0.04,VWS V14.01,2013-03-11 02:47:00,
2013-03-10 21:53:00,31.1,25.0,29.91,ENE,68,3.1,6.3,78,0.00,,---,0.04,VWS V14.01,2013-03-11 02:53:00,
2013-03-10 21:58:00,31.1,25.0,29.91,North,0,5.4,6.5,78,0.00,,---,0.04,VWS V14.01,2013-03-11 02:58:00,
2013-03-10 22:04:00,31.1,25.0,29.91,East,90,4.7,6.3,78,0.00,,---,0.04,VWS V14.01,2013-03-11 03:04:00,
2013-03-10 22:09:00,31.1,25.0,29.91,NNW,338,4.0,7.8,78,0.00,,---,0.04,VWS V14.01,2013-03-11 03:09:00,
2013-03-10 22:14:00,30.9,24.9,29.91,North,0,2.2,4.0,78,0.00,,---,0.04,VWS V14.01,2013-03-11 03:14:00,
2013-03-10 22:20:00,30.9,24.9,29.91,NNW,338,6.5,7.8,78,0.00,,---,0.04,VWS V14.01,2013-03-11 03:20:00,
2013-03-10 22:25:00,30.9,24.6,29.91,ENE,68,3.4,5.4,77,0.00,,---,0.04,VWS V14.01,2013-03-11 03:25:00,
2013-03-10 22:30:00,30.7,24.4,29.91,NW,315,4.3,6.3,77,0.00,,---,0.04,VWS V14.01,2013-03-11 03:30:00,
2013-03-10 22:36:00,30.7,24.4,29.91,NE,45,5.4,5.4,77,0.00,,---,0.04,VWS V14.01,2013-03-11 03:36:00,
2013-03-10 22:41:00,30.7,24.4,29.91,NNW,338,7.6,7.6,77,0.00,,---,0.04,VWS V14.01,2013-03-11 03:41:00,
2013-03-10 22:46:00,30.7,24.4,29.91,NNE,22,3.4,6.9,77,0.00,,---,0.04,VWS V14.01,2013-03-11 03:46:00,
2013-03-10 22:51:00,30.6,24.2,29.91,East,90,2.0,5.8,77,0.00,,---,0.04,VWS V14.01,2013-03-11 03:51:00,
2013-03-10 22:58:00,30.6,24.2,29.91,North,0,2.5,7.8,77,0.00,,---,0.04,VWS V14.01,2013-03-11 03:58:00,
2013-03-10 23:00:00,30.6,24.2,29.91,North,0,6.0,6.0,77,0.00,,---,0.04,VWS V14.01,2013-03-11 04:00:00,
2013-03-10 23:01:00,30.6,24.2,29.91,NNW,338,3.6,6.0,77,0.00,,---,0.04,VWS V14.01,2013-03-11 04:01:00,
2013-03-10 23:06:00,30.6,24.2,29.91,NE,45,3.6,6.0,77,0.00,,---,0.04,VWS V14.01,2013-03-11 04:06:00,
2013-03-10 23:11:00,30.6,24.2,29.88,ENE,68,3.8,7.6,77,0.00,,---,0.04,VWS V14.01,2013-03-11 04:11:00,
2013-03-10 23:16:00,30.4,24.0,29.88,ENE,68,8.1,8.1,77,0.00,,---,0.04,VWS V14.01,2013-03-11 04:16:00,
2013-03-10 23:21:00,30.4,24.0,29.88,NNE,22,4.3,6.3,77,0.00,,---,0.04,VWS V14.01,2013-03-11 04:21:00,
2013-03-10 23:26:00,30.4,24.0,29.88,ENE,68,3.4,3.8,77,0.00,,---,0.04,VWS V14.01,2013-03-11 04:26:00,
2013-03-10 23:32:00,30.2,24.2,29.88,NE,45,4.3,8.1,78,0.00,,---,0.04,VWS V14.01,2013-03-11 04:32:00,
2013-03-10 23:37:00,30.2,24.2,29.88,NNE,22,5.4,8.5,78,0.00,,---,0.04,VWS V14.01,2013-03-11 04:37:00,
2013-03-10 23:42:00,30.2,24.2,29.88,NNE,22,6.5,7.2,78,0.00,,---,0.04,VWS V14.01,2013-03-11 04:42:00,
2013-03-10 23:47:00,30.2,24.2,29.88,NE,45,3.6,6.5,78,0.00,,---,0.04,VWS V14.01,2013-03-11 04:47:00,
2013-03-10 23:53:00,30.2,24.2,29.88,NNE,22,2.2,4.3,78,0.00,,---,0.04,VWS V14.01,2013-03-11 04:53:00,
2013-03-10 23:58:00,30.2,24.2,29.88,NNE,22,3.4,4.3,78,0.00,,---,0.04,VWS V14.01,2013-03-11 04:58:00,